THORAD DELTA 1 DEB, 42613

Orbit data source: Space-Track

THORAD DELTA 1 DEB, 42613 is space debris in SSO originally from a launch on Fri, 15 Nov 1974 UTC launched from the Air Force Western Test Range (AFWTR). Debris objects in space refer to the collection of defunct objects orbiting the Earth. Examples of debris include non-operational satellites, rocket bodies, and fragments generated from explosions, collisions, or faulty payload assembly.

Loading next visibility...
Identifier
42613, 1974-089GE
Orbit
SSO
Last TLE update
9 hours ago
Origin
Manufacturer
Unknown
Mission
Spacecraft
Bus & Motor
Unknown
Mass
Unknown
Launch date (UTC)
1974-11-15 (50 years ago)
Launch vehicle
Unknown
Launch site
Air Force Western Test Range (AFWTR)
Object type
Payload
Rocket body
Debris
Shape & HBR
Unknown
Radar Cross Section
Small (<0.1 m²)

Expand to show TLE details & history

TLE from 9 hours ago
0 THORAD DELTA 1 DEB
1 42613U 74089GE  25128.84709586 -.00000022  00000-0  17590-3 0  9999
2 42613 102.2488 127.2259 0067141 212.3179 267.2147 12.43767269521155
Epoch: 2025-05-08T20:19Z
Definitive object data (Epoch: 2025-05-08T20:19:49.082Z)
Latitude
59.0347°
Longitude
156.4624°
Altitude
1,503.38 km
Speed
7.117 km/s
True Right ascension
21h 53m 18s
True Declination
58° 53' 50"
Sunlit
Object was in daylight at TLE epoch
Visualization TLE readout
Latitude
-46.20246°
Longitude
-31.25033°
Altitude
1,517.985 km
Speed
7.101 km/s
Apparent Right ascension
05h 40m 56s
Apparent Declination
-62° 40' 29"
Sunlit
Object is in daylight
Visualization observer readout
Local Sidereal Time
13:13:36
Azimuth
216.733° SW
Elevation
-45.119°
Doppler factor
1
Orbital elements
Apogee altitude
1,541.074 km
Perigee altitude
1,435.442 km
Semi-major axis
7,866.395 km
Eccentricity
0.0067141
Inclination
102.2488°
RAAN
127.2259°
Arg. of periapsis
212.3179°
True anomaly
266.44657°
Mean anomaly
267.2147°
Eccentric anomaly
266.8306°
Mean motion
3.11085 °/min
BSTAR
0.0001759
Orbital period
115.72 mins
Loading maneuver chart data...
Loading SW <> Apogee altitude chart data...

THORAD DELTA 1 DEB Visibility forecast

Observer location: undefined°, undefined°

Span
Click to sort rows by Start time (UTC) header in descending order
Start Az.
Max El. time (UTC)
Max El. Az.
Max El.
End time (UTC)
End Az.
14 mins2025-05-09 11:47:00.040Z37.068° NE2025-05-09 11:54:00.040Z99.363° ESE30.07°2025-05-09 12:01:00.040Z160.592° S
14 mins2025-05-09 13:41:00.040Z5.682° NNE2025-05-09 13:48:00.040Z289.1° WNW38.187°2025-05-09 13:55:00.040Z225.283° WSW
4 mins2025-05-09 21:04:00.040Z54.276° ENE2025-05-09 21:06:00.040Z39.904° NE12.338°2025-05-09 21:08:00.040Z25.809° NE
15 mins2025-05-09 22:50:00.040Z134.669° SE2025-05-09 22:57:00.040Z68.345° E38.929°2025-05-09 23:05:00.040Z351.592° N
13 mins2025-05-10 00:45:00.040Z205.602° SW2025-05-10 00:51:00.040Z262.706° W30.428°2025-05-10 00:58:00.040Z322.799° NNW
|